[[{"header":{"parameterUnit":"m.s-1","parameterCategory":1,"la1":30.2992,"la2":30.254,"lo1":-89.0895,"lo2":-89.0443,"dy":0.0025,"dx":0.0025,"nx":19,"ny":19,"refTime":"2026-03-11T21:00:00:Z","depth":0,"parameterNumber":2,"parameterNumberName":"U-component_of_WINDS"},"data":[0,0,0,-2.953,-2.9531,-2.9563,-2.9563,-2.961,-2.9611,0,0,0,0,0,0,0,0,0,0,0,-2.9524,-2.9525,-2.953,-2.9531,-2.9563,-2.9563,-2.961,-2.9611,0,0,0,0,0,0,0,0,0,0,0,-2.9524,-2.9525,-2.9525,-2.9531,-2.9563,-2.9563,-2.961,-2.9584,0,0,0,0,0,0,0,0,0,0,-2.9552,-2.955,-2.9525,-2.9525,-2.9531,-2.9563,-2.9563,-2.9582,-2.9585,-2.9599,0,-2.9611,0,-2.9612,-2.9615,-2.9615,0,0,0,-2.9528,-2.9547,-2.9553,-2.9525,-2.9532,-2.9563,-2.9548,-2.9584,-2.9588,-2.9603,-2.9612,-2.9613,-2.9613,-2.9615,-2.9615,-2.97,-2.9701,0,0,-2.9526,-2.9532,-2.955,-2.9555,-2.9551,-2.9547,-2.9549,-2.9586,-2.9596,-2.9612,-2.9615,-2.9614,-2.9615,-2.9616,-2.97,-2.97,0,0,0,-2.9523,-2.9531,-2.9535,-2.9553,-2.9559,-2.9548,-2.955,-2.9595,-2.9596,-2.9615,-2.9614,-2.9616,-2.9616,-2.9699,-2.97,-2.973,0,0,0,-2.9522,-2.9529,-2.9535,-2.9538,-2.9558,-2.9577,-2.9558,-2.9593,-2.9597,-2.9614,-2.9616,-2.9617,-2.9699,-2.97,-2.9728,-2.9742,0,0,0,-2.9521,-2.9529,-2.9535,-2.9539,-2.9553,-2.9576,-2.9579,-2.9594,-2.9597,-2.9615,-2.9617,-2.9698,-2.9699,-2.9726,-2.9739,-2.9764,0,0,0,-2.9521,-2.9562,-2.9535,-2.958,-2.9552,-2.9596,-2.9579,-2.9611,-2.963,-2.9616,-2.9699,-2.97,-2.9725,-2.9737,-2.9762,-2.9785,-2.9795,0,0,-2.9575,-2.9568,-2.9594,-2.9572,-2.9621,-2.959,-2.9644,-2.9656,-2.9653,-2.9685,-2.9687,-2.9728,-2.9739,-2.9764,-2.9858,-2.9866,0,0,0,-2.9613,-2.9631,-2.9643,-2.9662,-2.9673,-2.9683,-2.9687,-2.9692,-2.9718,-2.9671,-2.9746,-2.9752,-2.9766,-2.9777,-2.9784,-2.9795,-2.9706,-2.9706,-2.9705,-2.9694,-2.9689,-2.9731,-2.973,-2.9748,-2.9753,-2.9767,-2.9774,-2.9763,-2.9781,-2.9789,-2.9847,-2.9859,-2.9864,-2.9876,-2.9803,-2.9803,-2.9803,-2.9804,-2.977,-2.9794,-2.978,-2.9815,-2.981,-2.9839,-2.9846,-2.9838,-2.9864,-2.984,-2.9853,-2.9824,-2.9874,-2.9883,-2.9806,-2.9805,-2.9805,-2.9805,-2.9805,-2.982,-2.983,-2.9837,-2.9863,-2.9885,-2.9883,-2.9909,-2.9904,-2.9899,-2.9911,-2.9918,-2.9918,-2.9914,-2.9916,-2.9916,-2.9916,-2.9916,-2.9917,-2.9917,-2.9868,-2.9874,-2.9896,-2.9913,-2.9924,-2.9938,-2.9945,-2.9956,-2.9967,-2.996,-2.996,-2.9946,-2.9881,-2.9862,-2.992,-2.9919,-2.9919,-2.9918,-2.9918,-2.9941,-2.9924,-2.9959,-2.997,-2.9989,-3.001,-3.0004,-3.0027,-3.0036,-3.0049,-3.0034,-2.9987,-2.9979,-2.9973,-2.9958,-3.0036,-3.0036,-3.0036,-3.0036,-2.9981,-2.9978,-3.0011,-3.003,-3.0048,-3.0047,-3.0085,-3.0092,-3.0095,-3.01,-3.0089,-3.007,-3.0064,-3.0059,-3.0052,-3.0037,-3.0134,-3.0134,-3.0134,-3.0024,-3.0023,-3.0056,-3.006,-3.0074,-3.0087,-3.0123,-3.0145,-3.0146,-3.0138,-3.0104,-3.0099,-3.0068,-3.0058,-3.0045,-3.0034,-3.0007,0,0]},{"header":{"parameterUnit":"m.s-1","parameterCategory":1,"la1":30.2992,"la2":30.254,"lo1":-89.0895,"lo2":-89.0443,"dy":0.0025,"dx":0.0025,"nx":19,"ny":19,"refTime":"2026-03-11T21:00:00:Z","depth":0,"parameterNumber":3,"parameterNumberName":"V-component_of_WINDS"},"data":[0,0,0,4.7899,4.7898,4.7846,4.7846,4.7763,4.7763,0,0,0,0,0,0,0,0,0,0,0,4.7906,4.7905,4.79,4.7898,4.7846,4.7846,4.7764,4.7763,0,0,0,0,0,0,0,0,0,0,0,4.7906,4.7905,4.7904,4.7898,4.7846,4.7846,4.7764,4.7808,0,0,0,0,0,0,0,0,0,0,4.7861,4.7858,4.7905,4.7904,4.7897,4.7847,4.7846,4.7811,4.7806,4.778,0,4.7756,0,4.7758,4.7756,4.7756,0,0,0,4.7904,4.7862,4.7857,4.7904,4.7897,4.7847,4.7871,4.7808,4.7802,4.7773,4.7755,4.7752,4.7757,4.7755,4.7755,4.7594,4.7593,0,0,4.7907,4.789,4.7861,4.7853,4.7862,4.7873,4.787,4.7805,4.7783,4.7755,4.7751,4.7755,4.7755,4.7754,4.7595,4.7594,0,0,0,4.7911,4.7892,4.7889,4.7856,4.7848,4.7871,4.7868,4.7786,4.7787,4.775,4.7755,4.7754,4.7753,4.7596,4.7595,4.753,0,0,0,4.7913,4.7895,4.789,4.7879,4.7849,4.7817,4.785,4.7791,4.7784,4.7755,4.7754,4.7752,4.7598,4.7596,4.7535,4.7502,0,0,0,4.7912,4.7895,4.7884,4.7878,4.7856,4.7818,4.7815,4.779,4.7787,4.7756,4.7752,4.7598,4.7596,4.7538,4.7508,4.7457,0,0,0,4.7905,4.7824,4.7883,4.7794,4.7856,4.7779,4.7816,4.7758,4.7723,4.7754,4.7597,4.7595,4.754,4.7512,4.7461,4.7412,4.739,0,0,4.7793,4.781,4.7759,4.7811,4.7719,4.7788,4.7687,4.7669,4.7679,4.7622,4.7618,4.7533,4.7509,4.7458,4.727,4.7253,0,0,0,4.7718,4.7682,4.7661,4.763,4.7617,4.7604,4.7604,4.7598,4.7552,4.7647,4.7501,4.7487,4.7458,4.7435,4.742,4.7398,4.7584,4.7584,4.7584,4.7535,4.7557,4.7476,4.7492,4.7461,4.7466,4.7443,4.7435,4.7462,4.7428,4.7411,4.7295,4.7267,4.7256,4.7232,4.7386,4.7385,4.7385,4.7385,4.7375,4.7328,4.7372,4.7309,4.7332,4.7279,4.7281,4.7303,4.7257,4.7308,4.7283,4.7338,4.7236,4.7217,4.738,4.7381,4.7382,4.7382,4.7383,4.7258,4.724,4.7237,4.7198,4.7165,4.7184,4.7139,4.7161,4.718,4.7156,4.7143,4.7144,4.7149,4.7149,4.7148,4.7148,4.7147,4.7147,4.7147,4.7139,4.7138,4.7099,4.7083,4.7068,4.7051,4.7058,4.7043,4.7033,4.7052,4.7052,4.7084,4.7223,4.7258,4.7141,4.7142,4.7143,4.7143,4.7144,4.697,4.7013,4.6953,4.6939,4.6924,4.6891,4.6921,4.6891,4.6882,4.686,4.6899,4.6997,4.7014,4.7026,4.7056,4.6893,4.6893,4.6893,4.6893,4.6873,4.6885,4.6831,4.6808,4.6787,4.681,4.6743,4.6748,4.6759,4.6756,4.6782,4.6823,4.6834,4.6845,4.6861,4.6889,4.6687,4.6687,4.6687,4.6771,4.6784,4.6722,4.6738,4.6729,4.672,4.6659,4.663,4.6651,4.6679,4.6754,4.6763,4.6828,4.6848,4.6877,4.6901,4.6952,0,0]}]]